Theta_e
301 301 301 302 302 303 303 303 303 304 304 305 305 306 307 308 309 306 303 302 299 293 293 295 295 292 292 292 288 292 291 292 291 286 285 285 284 286 285 287 287 287 287 286 289 287 285 298 297 292 296 301 301 302
301 301 301 301 302 302 302 302 303 303 304 304 305 306 307 308 309 307 301 302 303 295 294 300 299 300 298 297 293 293 291 291 294 288 289 288 286 286 285 283 290 286 289 287 288 288 296 300 298 301 301 300 300 301
302 301 301 301 301 302 302 302 302 303 304 305 305 306 307 308 308 308 303 303 301 294 296 295 294 299 301 301 302 291 293 295 296 297 292 290 285 289 284 286 288 291 295 291 291 293 295 298 301 301 301 301 303 303
303 302 302 302 301 301 302 302 302 303 304 304 305 306 306 307 308 306 301 304 300 295 290 293 299 299 302 303 300 299 297 298 297 297 293 290 287 292 289 289 289 293 294 292 291 294 297 298 299 299 300 302 302 303
303 303 303 302 302 301 301 302 302 303 303 304 305 306 305 307 307 305 303 304 304 296 291 293 300 301 303 303 300 300 297 296 295 291 291 290 294 291 293 292 289 294 292 290 290 295 295 295 299 301 299 299 301 302
303 303 303 303 302 302 302 302 302 303 303 304 304 305 305 306 307 303 297 302 303 301 294 289 299 298 301 302 301 300 298 297 296 290 293 296 296 295 289 288 293 295 295 297 295 299 299 300 301 302 299 300 302 303
303 303 303 303 303 302 302 302 303 303 303 304 304 304 306 307 304 298 297 302 304 303 294 290 291 298 301 302 301 299 298 300 298 296 294 294 294 295 292 287 293 295 296 297 298 300 298 299 298 303 301 303 304 304
304 303 303 303 303 303 302 302 302 303 303 303 303 305 307 306 304 302 306 305 306 300 297 289 290 294 300 295 294 300 296 296 296 296 295 293 295 294 289 293 295 295 296 296 297 298 299 301 303 303 304 303 302 302
304 304 304 304 303 303 303 302 302 302 302 303 304 306 305 301 299 302 306 308 306 299 293 291 288 288 299 299 297 297 297 293 297 292 292 293 291 287 290 292 293 295 295 295 297 298 299 299 299 300 301 302 302 303
303 303 304 304 304 303 303 302 302 303 303 301 304 300 297 301 305 307 302 298 297 299 297 292 297 291 296 297 293 293 294 290 288 290 294 287 287 292 294 296 297 298 299 299 297 296 298 298 298 299 299 300 301 302
303 303 304 304 304 304 303 302 302 303 298 295 293 295 300 303 301 297 294 292 293 292 297 297 297 294 299 292 290 293 289 290 285 289 289 288 287 293 299 300 300 301 301 300 300 300 300 300 300 300 300 301 301 301
303 303 304 304 303 303 303 302 302 298 295 295 295 297 298 297 294 291 289 291 291 290 295 295 295 296 297 298 292 293 288 289 284 292 289 286 291 298 298 298 300 302 302 303 303 302 302 302 302 302 302 302 302 303
302 303 303 303 303 303 302 302 302 301 301 301 296 294 292 292 287 286 284 288 289 294 296 296 293 296 295 296 291 289 286 285 290 288 288 291 296 297 298 299 300 302 303 303 303 304 303 303 304 303 303 304 305 304
302 303 303 303 303 302 302 301 301 300 296 293 291 286 287 287 289 291 292 293 296 295 295 295 294 294 294 291 292 285 288 287 283 283 286 294 297 297 299 300 300 301 302 303 303 303 303 302 302 303 303 305 305 304
302 303 303 302 302 300 301 301 300 298 294 292 292 287 288 292 293 294 295 295 296 297 295 293 293 293 291 288 289 286 283 282 284 286 292 298 299 299 299 300 300 302 302 302 303 303 303 303 302 302 303 303 305 305
302 302 299 299 299 300 301 300 298 298 294 293 292 291 292 291 292 293 294 294 298 295 294 294 291 288 287 288 284 283 283 282 289 290 297 298 298 299 300 300 301 302 302 302 303 303 303 301 302 302 303 303 302 303
301 298 298 300 300 300 300 296 296 296 294 294 293 296 293 292 293 293 295 296 297 295 293 292 289 287 289 286 284 285 285 292 295 298 299 298 298 299 300 300 301 302 302 303 303 303 302 303 303 302 300 303 302 302
297 300 301 300 300 298 295 296 294 294 292 296 293 295 293 296 295 295 296 296 296 295 294 293 293 289 287 285 287 290 292 296 297 298 299 301 301 301 301 302 301 301 301 302 303 304 303 302 302 302 302 301 301 300
298 300 301 301 300 294 290 292 295 289 293 296 295 295 294 295 297 298 298 297 298 299 297 294 291 289 291 293 293 295 296 296 299 300 300 301 302 301 300 300 300 301 301 302 303 303 303 303 302 304 302 302 298 298
300 301 301 301 299 292 289 291 297 293 289 295 295 294 295 296 297 296 296 296 295 295 293 291 292 295 296 299 299 300 299 299 298 298 299 301 302 301 301 301 301 301 302 303 303 296 303 302 301 301 302 300 298 296
298 298 298 298 294 292 291 291 291 293 294 293 296 295 295 295 294 294 294 295 293 293 293 295 296 299 301 301 301 301 300 299 299 300 300 299 303 302 302 302 301 302 301 302 301 301 300 300 299 300 300 299 299 299
296 297 295 296 291 291 290 292 289 292 290 293 292 294 292 293 293 294 295 292 293 295 296 297 298 299 299 298 300 300 302 301 301 300 294 297 300 301 302 301 300 299 301 301 302 301 301 299 299 299 300 299 298 298
296 294 291 291 287 287 288 294 289 291 286 288 290 289 289 289 292 294 291 293 295 297 298 298 298 299 299 300 301 301 301 301 301 301 301 302 303 302 302 303 302 299 300 301 302 301 301 294 297 299 299 298 298 297
296 290 287 286 285 284 289 288 290 290 290 288 288 286 288 290 291 290 288 292 295 296 296 297 298 298 299 299 299 301 301 302 301 301 301 301 301 302 302 302 302 302 301 301 302 302 300 299 295 298 297 296 295 294
285 284 285 283 286 285 284 285 286 285 286 288 286 287 289 289 288 286 287 291 292 293 295 296 296 297 296 298 300 300 299 301 301 300 300 301 301 301 301 301 300 300 301 301 301 300 298 297 297 296 294 293 292 292
280 283 283 283 284 284 285 284 285 286 287 286 287 289 288 287 285 285 289 291 292 293 294 295 296 296 297 299 299 299 299 301 301 300 299 301 301 300 297 296 296 298 300 301 300 298 296 296 294 292 292 291 288 291
280 280 285 288 287 286 285 287 287 285 285 285 287 286 286 283 283 288 292 295 295 296 297 298 298 298 299 300 300 300 299 301 300 301 300 299 298 299 298 297 296 297 299 299 297 296 295 293 292 291 291 290 290 290
284 284 281 283 284 287 285 285 284 284 287 290 289 285 284 285 286 293 294 297 297 298 298 297 298 299 300 299 299 298 299 299 298 297 296 296 297 298 298 298 297 287 295 295 295 295 294 292 291 290 289 288 288 288
283 285 285 280 283 284 285 285 286 289 292 291 288 287 289 293 295 296 297 297 298 297 296 296 296 296 296 295 297 299 300 298 296 294 294 294 293 294 298 298 298 298 296 294 285 288 291 291 290 289 288 287 287 287
282 285 282 281 281 281 286 288 288 291 292 293 293 292 292 294 296 299 297 296 296 295 296 296 296 295 295 295 293 293 294 296 296 295 293 293 293 295 296 297 298 297 296 295 294 293 286 291 289 290 287 286 285 285
286 285 283 283 282 286 288 290 290 291 291 290 292 291 290 292 295 292 292 292 294 294 294 294 295 296 295 294 294 293 291 292 292 293 294 295 295 295 295 295 297 297 296 294 293 292 291 290 288 286 284 282 282 281
284 283 282 280 282 287 288 287 288 287 288 288 288 290 290 290 288 287 289 291 292 292 289 292 292 292 293 293 292 291 287 290 290 290 290 291 292 293 295 295 295 294 292 291 291 290 289 287 286 284 282 281 281 280
283 284 284 283 283 283 286 286 285 285 286 286 287 289 289 288 283 285 289 289 288 287 288 288 288 288 288 288 288 286 286 286 283 282 283 284 285 288 292 292 291 291 290 289 288 288 287 286 284 282 281 280 280 279
Wind_Speed
19 19 20 21 22 23 24 23 23 23 23 22 21 18 16 15 11 2 2 5 3 4 11 8 5 7 8 5 3 7 7 1 3 6 4 5 3 3 2 3 5 3 2 1 2 2 5 16 3 6 5 7 11 14
19 19 19 20 21 23 24 24 23 23 23 22 20 19 16 15 11 2 3 3 3 5 9 15 17 20 20 20 7 3 5 5 3 4 3 3 2 3 5 2 4 1 4 2 4 4 5 8 3 5 7 9 11 13
20 21 20 20 21 22 23 24 24 23 24 22 20 19 16 15 10 4 3 2 2 4 7 3 3 1 4 10 10 4 2 4 1 2 3 2 3 3 3 4 2 1 3 1 2 5 11 5 3 9 10 11 13 14
20 21 21 21 21 21 23 24 25 24 23 23 20 18 15 13 8 8 4 1 1 3 4 6 3 5 2 5 7 11 9 2 2 1 3 2 2 3 2 2 3 3 3 5 3 8 7 6 9 13 15 13 16 16
20 21 21 21 22 22 23 24 25 25 24 23 22 19 17 12 7 6 5 4 3 1 4 7 13 4 4 7 9 10 11 6 1 2 2 2 1 2 3 1 3 5 5 4 3 4 6 11 11 17 14 17 18 18
19 20 20 20 22 22 23 24 25 26 26 25 25 23 16 11 4 1 3 3 6 4 4 4 4 5 6 7 7 4 5 4 2 3 2 3 2 2 2 2 4 5 7 6 6 15 13 17 14 9 16 17 18 17
18 20 20 20 21 22 23 24 25 26 27 26 25 23 15 8 5 3 2 3 7 4 2 5 5 2 6 4 3 2 1 1 3 2 1 2 2 3 3 3 10 11 10 10 11 10 9 12 14 17 14 17 17 16
19 19 20 19 20 21 23 25 26 26 28 27 25 14 5 12 2 4 0 9 7 2 1 3 6 5 5 3 2 2 2 0 1 2 1 3 2 2 0 7 12 13 13 10 7 9 11 16 18 15 13 15 16 15
19 19 20 19 19 20 22 24 26 27 29 27 17 8 3 2 2 1 7 9 2 3 2 2 3 4 4 1 2 2 2 2 3 3 2 3 2 2 5 10 11 13 9 11 11 11 11 12 15 16 15 15 15 15
18 17 19 19 18 20 20 23 25 26 29 19 1 2 1 2 10 1 2 2 3 3 3 3 2 3 1 3 3 3 2 2 2 2 2 3 3 7 11 9 10 11 12 11 12 12 13 14 15 16 16 15 15 15
18 17 18 18 18 19 19 20 23 23 9 6 6 3 5 9 2 1 2 3 2 3 3 3 3 4 1 2 1 1 1 2 1 2 2 2 2 6 8 7 6 8 9 11 12 14 14 15 17 16 16 15 15 16
17 18 17 17 18 18 18 19 19 6 3 5 6 6 4 3 1 3 2 1 3 2 2 2 1 2 1 1 2 2 1 1 2 3 1 2 3 13 9 9 9 8 10 11 11 12 14 14 14 14 15 16 15 17
18 17 17 17 17 18 19 16 13 14 12 2 3 3 1 1 1 3 3 2 2 2 2 1 4 1 1 0 1 0 2 1 2 0 2 2 3 5 7 6 6 7 8 11 14 14 16 14 13 14 15 16 17 16
17 18 17 17 17 19 11 12 13 9 3 2 2 5 4 3 5 5 4 3 2 3 3 2 1 2 1 1 1 1 1 1 2 2 2 3 6 8 7 5 5 10 12 12 13 14 14 15 15 15 15 15 15 15
17 19 16 18 7 9 13 16 16 2 3 4 3 6 7 4 3 3 3 2 3 1 1 1 2 2 0 1 1 1 1 1 1 2 3 4 4 6 7 5 6 7 8 11 13 13 14 15 15 14 15 15 12 12
18 14 3 5 12 18 17 14 1 3 3 4 6 4 3 2 4 3 4 5 3 3 2 1 1 2 1 0 1 1 2 3 2 4 4 4 7 7 6 6 7 8 9 9 10 12 13 14 14 14 15 14 13 14
16 4 3 9 14 22 18 3 2 5 5 6 6 4 3 3 5 3 4 3 3 3 2 2 3 2 2 2 2 4 4 4 5 5 3 5 7 7 6 6 6 6 6 5 8 10 12 13 12 13 14 15 16 14
5 6 11 12 10 9 2 3 3 4 7 7 5 3 4 4 4 4 4 4 5 3 3 3 3 5 4 4 3 5 6 5 5 6 5 5 4 4 4 4 5 5 6 8 10 11 12 15 14 11 14 13 12 10
12 11 14 14 5 3 4 3 3 5 7 4 4 3 3 4 6 7 5 4 4 1 3 3 5 4 4 5 6 4 4 5 4 2 3 5 5 3 2 2 3 4 6 7 8 7 9 13 11 9 9 11 11 10
21 16 14 11 4 3 5 4 3 5 5 3 3 3 4 4 2 3 5 5 5 4 6 6 7 7 5 6 6 6 6 3 3 3 3 1 2 1 2 1 2 5 5 6 6 4 7 8 8 11 10 10 12 12
7 3 4 3 3 5 5 3 4 5 4 4 2 2 3 2 4 4 4 5 5 5 6 6 8 8 9 6 3 4 6 6 6 4 2 3 0 3 2 1 2 1 3 4 6 7 6 6 6 8 10 10 12 13
3 3 2 3 4 4 6 6 5 4 4 4 3 3 4 3 5 4 3 5 5 8 7 9 9 8 8 6 7 9 5 7 6 4 3 3 4 2 1 2 3 4 4 4 5 7 7 6 6 8 8 9 9 12
5 4 3 4 5 6 6 5 5 4 5 3 1 3 3 3 2 1 3 4 4 3 5 5 6 5 5 3 4 4 6 7 5 4 3 3 2 2 2 2 1 4 5 5 5 5 6 6 8 8 8 8 9 9
4 4 5 5 9 5 3 4 4 3 3 2 3 3 3 3 1 3 4 4 4 3 4 6 4 4 2 3 5 5 6 5 4 3 2 1 1 1 1 2 2 2 3 5 5 6 6 6 7 7 8 9 10 9
6 6 6 8 5 5 6 4 4 3 5 6 3 4 2 1 2 3 4 2 1 3 4 3 4 5 5 3 3 4 4 4 4 4 3 3 1 1 1 2 3 3 5 6 6 6 6 6 7 8 9 9 11 11
9 8 9 6 3 6 6 4 7 6 4 6 5 2 0 2 3 5 2 3 3 4 5 4 3 3 4 5 4 4 5 4 4 4 4 2 2 2 3 4 5 4 6 6 6 6 7 7 8 10 8 10 9 10
9 9 6 5 3 3 4 3 2 2 4 6 3 4 3 4 6 3 3 1 2 3 4 4 4 4 3 4 2 3 5 6 2 3 6 5 4 3 3 4 4 4 4 5 6 7 7 8 8 8 8 7 9 9
8 7 9 6 6 4 4 2 4 5 5 3 3 7 6 6 3 0 1 1 2 3 4 3 3 3 1 2 4 5 5 6 8 8 7 6 5 4 5 4 4 3 4 5 4 5 6 6 7 7 7 7 8 9
6 4 5 4 5 5 7 7 7 6 3 5 5 5 4 2 2 1 1 3 2 5 6 4 1 0 2 4 4 3 6 8 10 8 8 4 4 3 3 3 3 3 4 5 5 7 8 7 6 6 6 6 6 7
7 7 6 7 9 11 10 8 5 4 4 6 5 4 6 6 5 3 4 5 4 5 6 4 3 4 4 4 6 5 2 2 2 3 4 4 4 5 4 3 2 3 3 3 3 4 2 2 4 5 6 6 5 6
2 8 6 8 12 12 12 9 7 7 6 9 8 8 10 6 1 4 6 6 5 4 3 1 2 4 4 4 5 6 4 1 3 5 4 5 5 5 4 3 3 3 3 4 4 4 4 5 5 6 7 7 8 7
6 10 9 11 9 8 9 7 7 7 9 9 12 10 8 5 4 3 6 6 6 6 7 6 5 6 6 5 5 6 7 5 3 3 6 3 2 2 3 4 4 5 5 6 5 5 6 6 5 6 6 8 8 9
7 8 9 9 6 5 6 4 4 4 6 5 7 8 7 3 4 3 4 7 6 6 5 5 6 7 9 9 8 7 9 8 9 8 8 6 5 4 4 5 6 7 8 8 7 7 7 8 6 7 7 8 8 9
Wind_Direction
321 322 325 327 327 327 329 333 334 332 334 338 338 331 320 309 309 204 242 181 243 266 284 256 246 245 278 268 284 326 311 110 331 16 345 351 334 6 283 298 328 325 312 132 173 140 128 357 9 64 0 342 338 341
317 319 321 323 326 325 325 328 332 331 331 334 335 331 321 308 311 195 248 171 180 252 271 296 279 265 257 256 273 259 294 295 2 341 352 307 316 291 312 91 358 34 356 41 10 67 346 341 11 48 2 340 344 336
314 317 317 319 322 323 323 324 328 330 329 328 332 330 321 306 296 237 239 169 203 266 291 304 280 270 240 231 219 259 183 278 212 350 298 306 279 283 353 44 317 357 305 22 264 10 332 313 69 13 355 342 342 340
308 314 315 316 318 320 321 322 324 328 327 325 327 327 320 302 278 279 250 146 170 271 292 278 269 316 107 146 197 215 262 246 359 319 278 264 301 321 352 330 323 0 295 356 43 360 351 132 13 349 337 344 343 338
304 309 312 314 316 318 319 320 322 324 324 323 325 325 320 300 270 257 257 231 190 273 292 293 311 239 233 192 209 217 227 244 225 223 261 290 261 20 300 262 28 348 358 353 33 308 277 297 326 329 335 333 339 335
302 305 309 314 316 317 317 318 321 322 322 320 324 322 314 286 215 220 274 193 190 180 280 304 319 276 295 294 277 268 204 216 229 150 220 269 300 273 330 303 135 28 360 9 319 311 295 294 303 331 329 326 332 334
294 298 304 312 315 316 317 318 321 321 319 318 324 319 309 217 150 208 316 23 169 166 262 296 290 282 330 337 346 26 105 222 245 199 268 323 357 303 300 321 353 339 328 324 314 332 311 306 316 314 316 323 324 326
291 295 301 308 313 317 318 318 320 320 316 321 324 322 39 132 82 282 1 179 167 196 230 288 280 315 359 320 339 337 354 180 315 341 153 348 286 291 288 350 334 330 327 321 331 318 299 301 303 314 322 326 324 325
293 296 299 305 313 318 319 319 321 320 315 324 326 122 108 109 208 93 24 135 177 271 261 207 281 305 339 298 20 351 334 67 347 6 22 306 1 53 305 310 314 315 319 303 315 310 303 308 312 316 319 321 322 319
293 295 298 306 313 315 320 320 322 321 318 323 247 261 98 85 312 136 174 206 217 205 218 252 227 279 288 317 35 337 2 38 16 8 329 18 23 254 267 268 277 297 295 304 306 322 324 316 314 315 319 313 307 308
294 295 298 304 309 315 322 321 321 323 341 0 354 315 335 306 170 227 216 220 177 236 210 236 243 293 176 313 347 266 359 356 23 20 327 72 2 300 320 305 291 306 292 289 278 278 283 282 289 302 309 307 305 300
299 297 295 297 304 311 320 317 318 327 311 280 297 295 277 292 141 239 238 223 221 282 205 252 330 236 227 250 218 194 146 331 81 322 284 40 328 332 346 343 340 335 327 333 337 316 303 294 295 293 298 299 298 295
307 303 297 299 301 306 314 307 309 307 307 256 197 245 304 241 258 213 216 216 253 206 220 283 324 294 200 70 65 33 207 184 298 169 99 235 291 304 329 335 338 313 310 313 321 328 347 331 319 315 305 297 290 286
306 301 297 293 297 304 302 305 321 329 290 265 244 284 207 222 238 196 188 200 230 244 274 290 251 298 329 223 182 210 79 231 99 117 192 277 306 325 317 319 323 335 336 331 325 328 332 350 341 325 321 314 295 288
306 301 301 298 283 322 314 320 326 233 206 241 192 237 226 242 259 250 228 245 212 251 217 213 185 236 66 261 4 323 170 102 257 195 239 249 284 307 299 296 314 329 335 327 330 332 332 343 341 338 336 329 316 287
315 306 277 303 326 311 319 320 258 181 233 227 234 243 207 253 248 212 212 247 182 151 137 187 238 233 188 203 250 202 173 209 224 223 248 299 299 302 314 302 295 306 320 322 324 336 341 341 339 328 333 340 336 320
312 234 272 312 322 308 311 256 213 223 232 226 237 221 205 262 256 251 202 218 152 173 220 168 230 229 117 235 228 194 212 214 222 248 247 262 280 294 302 291 281 299 315 321 321 335 333 333 339 345 342 337 330 322
268 265 276 295 312 310 260 223 246 248 245 236 239 207 198 222 233 240 211 178 180 196 172 225 126 189 210 203 227 225 229 255 255 261 276 281 265 287 299 273 289 291 328 330 334 337 346 353 343 343 333 332 317 322
294 295 290 275 296 307 279 235 212 262 247 261 249 222 227 243 228 248 241 187 205 182 169 190 231 206 206 206 231 239 235 223 246 226 255 278 269 282 326 283 297 337 337 328 336 331 330 333 333 328 316 328 337 334
300 290 274 274 248 236 263 252 213 256 262 261 247 224 219 230 260 231 233 189 184 190 200 213 221 229 217 218 209 227 233 199 202 240 270 314 165 260 276 68 20 326 313 320 326 323 334 333 335 329 332 335 341 334
283 265 301 168 177 216 275 274 250 237 273 261 274 241 255 228 236 225 231 160 181 215 233 219 232 232 228 238 209 219 224 192 205 219 239 283 273 317 306 50 34 342 328 321 325 337 341 343 330 328 331 331 335 337
251 193 276 200 236 225 246 229 245 297 258 264 270 224 253 249 257 240 150 193 230 241 226 234 233 237 237 234 230 216 217 187 200 193 223 233 250 288 314 8 339 336 338 331 328 331 341 355 336 338 340 332 340 338
199 187 201 225 229 226 245 177 217 221 242 247 271 240 231 234 222 155 243 225 244 246 246 234 245 238 241 238 209 171 182 188 184 197 196 208 239 267 255 269 286 320 334 348 331 322 337 347 346 344 347 343 346 348
154 216 223 225 201 244 234 228 208 241 228 235 235 254 230 233 5 236 240 259 289 272 225 228 197 181 188 217 226 208 179 183 174 155 117 136 192 180 264 290 289 279 330 315 315 332 343 349 352 354 4 355 354 351
224 217 224 225 217 220 213 222 209 218 239 201 221 259 237 98 246 252 256 281 293 289 274 227 224 230 231 230 213 167 153 167 157 159 147 183 223 250 329 346 6 33 9 338 356 352 354 352 357 358 5 6 2 359
217 217 210 209 212 211 211 216 204 218 209 204 221 250 283 200 238 247 230 337 330 339 344 307 271 228 223 226 198 168 161 163 151 148 142 149 91 47 17 4 358 24 20 0 343 353 358 360 6 359 5 7 7 13
219 224 211 224 237 245 256 250 273 247 223 207 198 170 155 226 240 244 154 69 21 344 327 315 286 255 238 190 167 147 122 138 148 115 116 108 93 68 35 19 15 15 2 29 22 9 7 9 6 5 8 16 13 13
217 200 192 205 211 216 239 201 210 221 224 206 183 194 196 211 242 110 112 130 301 326 23 14 344 289 238 130 130 133 119 120 118 118 109 92 77 87 96 92 78 87 71 48 54 46 39 29 19 19 19 25 15 15
223 205 207 222 208 209 213 216 230 221 209 197 204 207 214 231 312 284 338 335 306 347 322 338 353 104 110 92 99 128 152 160 162 169 180 165 165 142 141 136 153 144 103 87 47 41 54 57 52 46 34 28 22 27
221 187 207 219 225 232 231 212 240 248 228 247 269 272 267 261 286 360 339 335 325 303 297 281 276 195 234 169 141 131 104 155 208 185 188 191 160 135 152 172 163 132 114 96 82 81 73 40 71 57 43 36 30 28
191 188 219 232 247 246 250 246 249 247 246 256 250 243 252 267 202 52 17 337 309 303 288 54 150 211 158 175 172 165 157 160 129 112 104 116 132 144 152 149 147 138 121 114 110 94 89 72 55 49 54 55 44 47
204 209 224 235 242 249 244 241 233 228 236 234 240 237 238 227 216 60 352 351 15 18 20 4 1 23 32 54 55 52 43 97 95 91 102 91 106 112 117 123 125 118 115 109 101 93 85 79 74 72 70 71 71 68
222 223 232 249 241 234 218 204 225 245 221 230 231 208 200 159 96 31 357 11 27 27 37 48 56 56 59 63 74 75 69 64 48 33 45 55 55 68 97 98 101 106 105 99 94 95 88 89 85 85 86 87 86 84